Location: Baller�as
(41.9020°N, 0.1554°W)
Time: 00:56:16
(UTC+00:00)

Terra - Pass Details

Date: 10 August 2020
Orbit: 701 x 703 km, 98.2° (Epoch: 22 September)

Event Time Altitude Azimuth Distance (km) Brightness Sun altitude
Exits shadow 21:47:35 66° 76° (ENE) 770 1.8 -24.6°
Maximum altitude 21:47:36 66° 74° (ENE) 770 1.8 -24.6°
Drops below altitude 10° 21:52:20 10° 353° (N) 2,180 5.1 -25.1°
Sets 21:54:37 0° 350° (N) 3,103 6.2 -25.4°
